Flag for Norway Weather past 2 weeks in Drøbak, Norway

52 °F

Light rain. Partly sunny.

Feels Like: 44 °F
Forecast: 43 / 49 °F
Wind: 35 mph from South

Location: Oslo / Fornebu

Current Time: Oct 8, 2015 at 6:56:10 PM

Latest Report: Oct 8, 2015 at 6:20 PM

Visibility: 4 mi

Pressure: 30.01 "Hg

Humidity: 94%

Dew point: 50 °F

Location of DrøbakLocation

Historic Weather in Drøbak — Graph


Drøbak temperature yesterday

Maximum temperature yesterday: 57 °F (at 2:20 AM)
Minimum temperature yesterday: 52 °F (at 7:20 AM)
Average temperature yesterday: 54 °F

Past Weeks' High & Low Weather Summary

High61 °F (Oct 5, 11:50 PM)100% (Sep 24, 3:20 AM)30.60 "Hg (Sep 24, 3:20 AM)
Low50 °F (Sep 24, 6:50 AM)55% (Oct 6, 7:50 PM)29.50 "Hg (Sep 24, 7:50 AM)
Average53 °F84%30.06 "Hg
* Reported Sep 23 5:20 PM — Oct 8 5:50 PM, Drøbak, Weather by CustomWeather, © 2015

Note: Actual official high and low records may vary slightly from our data, if they occured in-between our weather recording intervals... More about our weather records


Drøbak weather history for previous 24 hours

Time TempWeatherWind HumidityBarometerVisibility
5:50 PM
Thu, Oct 8
52 °FSprinkles. Partly sunny.35 mph94%30.01 "Hg6 mi
5:20 PM52 °FLight rain. Partly sunny.38 mph94%30.01 "HgN/A
4:50 PM52 °FLight rain. Partly sunny.36 mph94%30.01 "Hg4 mi
4:20 PM52 °FLight rain. Partly sunny.40 mph94%30.01 "Hg4 mi
3:50 PM52 °FLight rain. Partly sunny.43 mph94%30.01 "Hg4 mi
3:20 PM52 °FLight rain. Fog.41 mph94%30.01 "Hg2 mi
2:50 PM52 °FSprinkles. Fog.45 mph94%29.98 "Hg3 mi
2:20 PM52 °FSprinkles. Partly sunny.40 mph94%29.98 "Hg4 mi
1:50 PM52 °FSprinkles. Partly sunny.40 mph94%29.98 "HgN/A
1:20 PM52 °FLight rain. Broken clouds.41 mph94%29.98 "HgN/A
12:50 PM52 °FLight rain. Partly sunny.40 mph94%29.95 "HgN/A
12:20 PM52 °FLight rain. Broken clouds.40 mph94%29.95 "Hg3 mi
11:50 AM52 °FRain. Partly sunny.41 mph94%29.95 "Hg3 mi
11:20 AM52 °FRain. Fog.39 mph94%29.95 "Hg2 mi
10:50 AM52 °FSprinkles. Partly sunny.39 mph94%29.95 "Hg6 mi
10:20 AM52 °FSprinkles. Partly sunny.41 mph88%29.92 "Hg5 mi
9:50 AM52 °FSprinkles. Partly sunny.44 mph88%29.92 "HgN/A
9:20 AM52 °FSprinkles. Overcast.43 mph88%29.92 "HgN/A
8:50 AM52 °FSprinkles. Partly sunny.38 mph88%29.92 "HgN/A
8:20 AM52 °FSprinkles. Passing clouds.39 mph88%29.92 "Hg4 mi
7:50 AM52 °FLight rain. Fog.39 mph88%29.92 "Hg3 mi
7:20 AM52 °FLight rain. Passing clouds.43 mph88%29.89 "Hg3 mi
6:50 AM52 °FLight rain. Fog.41 mph88%29.92 "Hg3 mi
6:20 AM54 °FLight rain. Fog.44 mph82%29.92 "Hg3 mi
5:20 AM52 °FLight rain. Passing clouds.41 mph88%29.92 "Hg3 mi
4:50 AM54 °FLight rain. Fog.45 mph82%29.92 "Hg2 mi
4:20 AM52 °FLight rain. Fog.40 mph88%29.92 "Hg2 mi
3:50 AM52 °FLight rain. Fog.41 mph88%29.92 "Hg3 mi
3:20 AM54 °FLight rain. Passing clouds.37 mph82%29.92 "Hg4 mi
2:50 AM54 °FSprinkles. Passing clouds.39 mph82%29.92 "Hg6 mi
2:20 AM54 °FLight rain. Partly cloudy.39 mph88%29.95 "HgN/A
1:50 AM54 °FLight rain. Passing clouds.38 mph88%29.95 "Hg6 mi
1:20 AM54 °FSprinkles. Passing clouds.36 mph82%29.95 "HgN/A
12:50 AM52 °FSprinkles. Passing clouds.40 mph88%29.95 "HgN/A
12:20 AM54 °FLight rain. Passing clouds.36 mph82%29.95 "HgN/A
11:50 PM
Wed, Oct 7
54 °FLight rain. Passing clouds.36 mph82%29.95 "HgN/A
10:50 PM54 °FSprinkles. Passing clouds.39 mph82%29.95 "HgN/A
10:20 PM54 °FLight rain. Passing clouds.35 mph82%29.95 "HgN/A
9:50 PM52 °FLight rain. Passing clouds.31 mph88%29.95 "HgN/A
9:20 PM54 °FLight rain. Passing clouds.29 mph82%29.95 "Hg6 mi
8:50 PM54 °FLight rain. Overcast.28 mph82%29.95 "HgN/A
8:20 PM54 °FLight rain. Passing clouds.30 mph82%29.95 "HgN/A
7:50 PM54 °FLight rain. Passing clouds.30 mph82%29.95 "Hg6 mi
7:20 PM54 °FSprinkles. Partly sunny.29 mph82%29.95 "HgN/A
6:50 PM54 °FSprinkles. Overcast.33 mph82%29.95 "HgN/A
6:20 PM54 °FSprinkles. Partly sunny.37 mph82%29.95 "HgN/A
Weather by CustomWeather, © 2015

See weather overviewHow to use our weather pages